O'Neill, NE

12:27 AM CDT on July 24, 2017 (GMT -0500)
The O'Neill Municipal-Baker

Weather History for KONL - February, 2014

Change the Weather History Date:

Saturday, February 1, 2014

  Actual Average Record
Temperature  
Mean Temperature 14 °F -  
Max Temperature 23 °F 30 °F 67 °F (1992)
Min Temperature 4 °F 8 °F -19 °F (1979)
Degree Days  
Heating Degree Days 51    
Moisture  
Dew Point 6 °F    
Average Humidity 66    
Maximum Humidity 83    
Minimum Humidity 42    
Precipitation  
Precipitation 0.00 in - - ()
Sea Level Pressure  
Sea Level Pressure 30.06 in    
Wind  
Wind Speed 12 mph (NW)    
Max Wind Speed 23 mph    
Max Gust Speed 31 mph    
Visibility 10 miles    
Events Snow    
Averages and records for this station are not official NWS values.
T = Trace of Precipitation, MM = Missing Value Source: NWS Daily Summary

Daily Weather History Graph

Daily Weather History Graph

Search for Another Location

Airport or City:

Trip Planner

Search our weather history database for the weather conditions in past years. The results will help you decide how hot, cold, wet, or windy it might be!

Date:

Astronomy

Feb. 01, 2014 Rise Set
Actual Time 7:48 AM CST 5:48 PM CST
Civil Twilight 7:18 AM CST 6:18 PM CST
Nautical Twilight 6:45 AM CST 6:52 PM CST
Astronomical Twilight 6:12 AM CST 7:25 PM CST
Moon 8:35 AM CST (2/1) 8:30 PM CST (2/1)
Length of Visible Light 10h 59m
Length of Day
10h 00m
Waxing Crescent, 5% of the Moon is Illuminated
Feb 1
Waxing Crescent
Feb 6
First Quarter
Feb 14
Full
Feb 22
Last Quarter
Mar 1
New

Hourly Weather History & Observations

Time (CST) Temp. Windchill Dew Point Humidity Pressure Visibility Wind Dir Wind Speed Gust Speed Precip Events Conditions
12:15 AM 22.6 °F 14.3 °F 16.7 °F 78% 29.86 in 10.0 mi SSW 6.9 mph - N/A Snow Light Snow
12:35 AM 22.5 °F 13.2 °F 16.9 °F 79% 29.86 in 10.0 mi SW 8.1 mph - N/A   Overcast
12:55 AM 22.6 °F 11.9 °F 17.2 °F 80% 29.87 in 7.0 mi SW 10.4 mph - N/A Snow Light Snow
1:15 AM 22.6 °F 12.6 °F 17.6 °F 81% 29.86 in 4.0 mi SSW 9.2 mph - N/A Snow Light Snow
1:35 AM 22.5 °F 13.2 °F 18.0 °F 83% 29.86 in 5.0 mi SW 8.1 mph - N/A Snow Light Snow
1:55 AM 22.6 °F 12.6 °F 18.0 °F 82% 29.85 in 10.0 mi SW 9.2 mph - N/A   Overcast
2:15 AM 22.6 °F 14.3 °F 17.6 °F 81% 29.86 in 10.0 mi SW 6.9 mph - N/A   Overcast
2:35 AM 22.5 °F 14.1 °F 17.4 °F 81% 29.87 in 10.0 mi SW 6.9 mph - N/A   Overcast
2:55 AM 23.0 °F 14.7 °F 17.8 °F 80% 29.86 in 10.0 mi WSW 6.9 mph - N/A   Overcast
3:15 AM 23.0 °F 13.9 °F 18.1 °F 82% 29.86 in 10.0 mi West 8.1 mph - N/A   Overcast
3:35 AM 23.7 °F 16.6 °F 18.3 °F 80% 29.86 in 10.0 mi West 5.8 mph - N/A   Overcast
3:55 AM 23.0 °F 14.7 °F 17.8 °F 80% 29.87 in 10.0 mi West 6.9 mph - N/A   Mostly Cloudy
4:15 AM 23.5 °F 11.3 °F 17.6 °F 78% 29.88 in 10.0 mi WNW 13.8 mph - N/A   Clear
4:35 AM 23.7 °F 12.6 °F 17.2 °F 76% 29.88 in 10.0 mi NW 11.5 mph - N/A   Clear
4:55 AM 23.0 °F 9.6 °F 15.8 °F 74% 29.89 in 10.0 mi NW 16.1 mph 20.7 mph N/A   Clear
5:15 AM 21.2 °F 6.0 °F 13.1 °F 71% 29.90 in 10.0 mi NNW 19.6 mph 26.5 mph N/A   Scattered Clouds
5:35 AM 20.3 °F 4.4 °F 11.8 °F 70% 29.91 in 10.0 mi NNW 20.7 mph 27.6 mph N/A   Mostly Cloudy
5:55 AM 18.7 °F 3.1 °F 11.1 °F 72% 29.93 in 10.0 mi NNW 18.4 mph - N/A   Scattered Clouds
6:15 AM 17.2 °F 3.3 °F 10.4 °F 75% 29.94 in 10.0 mi NNW 13.8 mph 18.4 mph N/A   Clear
6:35 AM 16.3 °F 1.0 °F 9.5 °F 74% 29.95 in 10.0 mi NNW 16.1 mph 21.9 mph N/A   Clear
6:55 AM 15.8 °F -0.2 °F 8.1 °F 72% 29.97 in 10.0 mi NNW 17.3 mph 25.3 mph N/A   Clear
7:15 AM 15.4 °F 1.0 °F 7.9 °F 72% 29.97 in 10.0 mi NNW 13.8 mph - N/A   Clear
7:35 AM 15.1 °F -1.6 °F 7.7 °F 73% 29.99 in 10.0 mi NNW 18.4 mph 23.0 mph N/A   Clear
7:55 AM 14.5 °F -0.7 °F 7.0 °F 72% 30.00 in 10.0 mi NNW 15.0 mph - N/A   Clear
8:15 AM 14.0 °F -2.0 °F 6.8 °F 73% 30.00 in 10.0 mi NNW 16.1 mph 23.0 mph N/A   Clear
8:35 AM 14.0 °F -3.0 °F 6.8 °F 73% 30.01 in 10.0 mi NNW 18.4 mph 25.3 mph N/A   Clear
8:55 AM 14.9 °F -0.3 °F 7.3 °F 72% 30.02 in 10.0 mi NNW 15.0 mph - N/A   Clear
9:15 AM 15.6 °F -0.4 °F 6.6 °F 68% 30.03 in 10.0 mi NNW 17.3 mph 25.3 mph N/A   Clear
9:35 AM 15.6 °F -2.2 °F 5.9 °F 66% 30.04 in 10.0 mi NNW 21.9 mph - N/A   Scattered Clouds
9:55 AM 16.2 °F -1.0 °F 5.4 °F 62% 30.05 in 10.0 mi NNW 20.7 mph 26.5 mph N/A   Mostly Cloudy
10:15 AM 14.9 °F -3.1 °F 5.0 °F 65% 30.06 in 10.0 mi NNW 21.9 mph 27.6 mph N/A   Overcast
10:35 AM 15.1 °F -3.3 °F 5.2 °F 65% 30.07 in 10.0 mi NNW 23.0 mph 26.5 mph N/A   Overcast
10:55 AM 15.6 °F -2.2 °F 5.4 °F 64% 30.08 in 10.0 mi NNW 21.9 mph 31.1 mph N/A   Overcast
11:15 AM 15.8 °F -1.5 °F 5.2 °F 63% 30.08 in 10.0 mi NNW 20.7 mph 26.5 mph N/A   Overcast
11:35 AM 16.5 °F 0.3 °F 5.7 °F 63% 30.09 in 10.0 mi NNW 18.4 mph 24.2 mph N/A   Overcast
11:55 AM 16.9 °F 2.3 °F 5.5 °F 61% 30.10 in 10.0 mi North 15.0 mph 23.0 mph N/A   Overcast
12:15 PM 17.1 °F 3.0 °F 5.7 °F 61% 30.09 in 10.0 mi North 13.8 mph - N/A   Overcast
12:35 PM 18.3 °F 3.6 °F 5.5 °F 57% 30.09 in 10.0 mi North 16.1 mph - N/A   Overcast
12:55 PM 18.3 °F 3.1 °F 4.6 °F 55% 30.09 in 10.0 mi NW 17.3 mph 21.9 mph N/A   Mostly Cloudy
1:15 PM 19.6 °F 4.3 °F 4.1 °F 51% 30.09 in 10.0 mi NNW 18.4 mph 24.2 mph N/A   Mostly Cloudy
1:35 PM 19.6 °F 4.3 °F 2.5 °F 48% 30.09 in 10.0 mi NW 18.4 mph - N/A   Mostly Cloudy
1:55 PM 18.7 °F 2.7 °F 0.9 °F 46% 30.10 in 10.0 mi NW 19.6 mph 25.3 mph N/A   Mostly Cloudy
2:15 PM 18.3 °F 3.1 °F 0.9 °F 47% 30.10 in 10.0 mi NW 17.3 mph - N/A   Overcast
2:35 PM 18.5 °F 3.3 °F 0.5 °F 45% 30.10 in 10.0 mi NNW 17.3 mph 25.3 mph N/A   Overcast
2:55 PM 19.9 °F 3.5 °F -0.0 °F 42% 30.10 in 10.0 mi NNW 21.9 mph 25.3 mph N/A   Mostly Cloudy
3:15 PM 18.5 °F 2.9 °F 0.3 °F 45% 30.11 in 10.0 mi NNW 18.4 mph 24.2 mph N/A   Mostly Cloudy
3:35 PM 17.8 °F 1.9 °F -0.2 °F 45% 30.12 in 10.0 mi NW 18.4 mph 23.0 mph N/A   Overcast
3:55 PM 17.6 °F 1.7 °F -0.2 °F 46% 30.13 in 10.0 mi NNW 18.4 mph 23.0 mph N/A   Mostly Cloudy
4:15 PM 18.1 °F 2.4 °F -0.4 °F 44% 30.13 in 10.0 mi NNW 18.4 mph - N/A   Scattered Clouds
4:35 PM 17.6 °F 3.2 °F -0.4 °F 45% 30.14 in 10.0 mi NNW 15.0 mph - N/A   Clear
4:55 PM 16.2 °F 0.3 °F -0.2 °F 49% 30.15 in 10.0 mi NNW 17.3 mph - N/A   Clear
5:15 PM 16.5 °F 1.8 °F 0.3 °F 49% 30.15 in 10.0 mi NNW 15.0 mph 18.4 mph N/A   Mostly Cloudy
5:35 PM 15.4 °F 1.6 °F -0.0 °F 51% 30.16 in 10.0 mi NW 12.7 mph - N/A   Overcast
5:55 PM 13.1 °F 1.8 °F -0.6 °F 54% 30.17 in 10.0 mi NNW 8.1 mph - N/A   Scattered Clouds
6:15 PM 10.4 °F -0.4 °F -1.3 °F 59% 30.17 in 10.0 mi NNW 6.9 mph - N/A   Clear
6:35 PM 9.3 °F -0.5 °F -1.3 °F 62% 30.18 in 10.0 mi NW 5.8 mph - N/A   Clear
6:55 PM 8.2 °F -1.8 °F -1.5 °F 65% 30.18 in 10.0 mi NW 5.8 mph - N/A   Clear
7:15 PM 8.6 °F -2.6 °F -1.3 °F 64% 30.19 in 10.0 mi NW 6.9 mph - N/A   Clear
7:35 PM 7.7 °F -0.9 °F -1.5 °F 66% 30.21 in 10.0 mi NW 4.6 mph - N/A   Clear
7:55 PM 7.3 °F -1.3 °F -1.7 °F 67% 30.21 in 10.0 mi NW 4.6 mph - N/A   Clear
8:15 PM 7.5 °F 0.8 °F -1.7 °F 66% 30.21 in 10.0 mi NW 3.5 mph - N/A   Clear
8:35 PM 8.4 °F -0.1 °F -1.5 °F 64% 30.21 in 10.0 mi NW 4.6 mph - N/A   Clear
8:55 PM 7.7 °F 1.0 °F -1.5 °F 66% 30.22 in 10.0 mi WNW 3.5 mph - N/A   Clear
9:15 PM 5.5 °F -1.5 °F -2.7 °F 69% 30.22 in 10.0 mi WNW 3.5 mph - N/A   Clear
9:35 PM 5.9 °F -1.1 °F -2.2 °F 69% 30.23 in 10.0 mi WNW 3.5 mph - N/A   Clear
9:55 PM 5.9 °F -3.0 °F -2.2 °F 69% 30.23 in 10.0 mi WNW 4.6 mph - N/A   Clear
10:15 PM 5.9 °F -4.5 °F -2.2 °F 69% 30.24 in 10.0 mi WNW 5.8 mph - N/A   Clear
10:35 PM 5.9 °F -4.5 °F -2.0 °F 70% 30.24 in 10.0 mi WNW 5.8 mph - N/A   Clear
10:55 PM 5.7 °F -3.2 °F -2.2 °F 70% 30.24 in 10.0 mi WNW 4.6 mph - N/A   Clear
11:15 PM 6.4 °F -2.4 °F -1.7 °F 69% 30.24 in 10.0 mi West 4.6 mph - N/A   Clear
11:35 PM 5.0 °F -4.1 °F -2.4 °F 72% 30.24 in 10.0 mi West 4.6 mph - N/A   Clear
11:55 PM 4.1 °F -5.1 °F -2.6 °F 74% 30.24 in 10.0 mi West 4.6 mph - N/A   Clear